• In Romania
  • List of Countries
  • For 7 days
  • Water Temperature
  • Satellite Maps
  • Weather Map
  • Weather Widgets
  • user-avatar
    Login

    Hourly Weather Lewis

    Today, 28 May, Monday

    Time Temperature Precipitation Wind Pressure Humidity
    00:00 +15°C° 0 mm 4 mps 756 mmHg 70%
    01:00 +15°C° 0 mm 4 mps 756 mmHg 71%
    02:00 +15°C° 0 mm 4 mps 756 mmHg 73%
    03:00 +14°C° 0 mm 4 mps 756 mmHg 74%
    04:00 +14°C° 0 mm 3 mps 756 mmHg 74%
    05:00 +14°C° 0 mm 3 mps 756 mmHg 74%
    06:00 +16°C° 0 mm 3 mps 756 mmHg 74%
    07:00 +16°C° 0 mm 3 mps 757 mmHg 71%
    08:00 +17°C° 0 mm 2 mps 757 mmHg 69%
    09:00 +18°C° 0 mm 2 mps 757 mmHg 66%
    10:00 +18°C° 0 mm 2 mps 757 mmHg 64%
    11:00 +19°C° 0 mm 2 mps 757 mmHg 62%
    12:00 +20°C° 0 mm 2 mps 757 mmHg 60%
    13:00 +20°C° 0 mm 2 mps 758 mmHg 60%
    14:00 +20°C° 0 mm 2 mps 758 mmHg 59%
    15:00 +20°C° 0 mm 2 mps 758 mmHg 59%
    16:00 +20°C° 0 mm 3 mps 758 mmHg 62%
    17:00 +19°C° 0 mm 3 mps 758 mmHg 65%
    18:00 +19°C° 0 mm 3 mps 758 mmHg 67%
    19:00 +18°C° 0 mm 3 mps 758 mmHg 72%
    20:00 +15°C° 0 mm 4 mps 759 mmHg 76%
    21:00 +14°C° 0 mm 4 mps 759 mmHg 80%
    22:00 +14°C° 0 mm 4 mps 759 mmHg 80%
    23:00 +14°C° 0 mm 4 mps 759 mmHg 80%

    Tomorrow, 29 May, Tuesday

    Time Temperature Precipitation Wind Pressure Humidity
    00:00 +13°C° 0 mm 4 mps 759 mmHg 80%
    01:00 +13°C° 0 mm 4 mps 759 mmHg 80%
    02:00 +13°C° 0 mm 4 mps 759 mmHg 81%
    03:00 +13°C° 0 mm 3 mps 759 mmHg 81%
    04:00 +14°C° 0 mm 3 mps 759 mmHg 80%
    05:00 +14°C° 0 mm 3 mps 759 mmHg 78%
    06:00 +16°C° 0 mm 3 mps 759 mmHg 77%
    07:00 +17°C° 0 mm 3 mps 759 mmHg 73%
    08:00 +17°C° 0 mm 3 mps 759 mmHg 69%
    09:00 +18°C° 0 mm 3 mps 759 mmHg 65%
    10:00 +19°C° 0 mm 3 mps 759 mmHg 63%
    11:00 +20°C° 0 mm 3 mps 759 mmHg 62%
    12:00 +20°C° 0 mm 3 mps 758 mmHg 60%
    13:00 +21°C° 0 mm 3 mps 758 mmHg 59%
    14:00 +21°C° 0 mm 4 mps 758 mmHg 59%
    15:00 +21°C° 0 mm 4 mps 758 mmHg 59%
    16:00 +21°C° 0 mm 4 mps 758 mmHg 59%
    17:00 +21°C° 0 mm 4 mps 757 mmHg 60%
    18:00 +21°C° 0 mm 5 mps 757 mmHg 60%
    19:00 +20°C° 0 mm 5 mps 757 mmHg 64%
    20:00 +19°C° 0 mm 5 mps 757 mmHg 68%
    21:00 +17°C° 0 mm 5 mps 757 mmHg 72%
    22:00 +16°C° 0 mm 5 mps 757 mmHg 73%
    23:00 +15°C° 0 mm 5 mps 757 mmHg 74%

    Day after tomorrow, 30 May, Wednesday

    Time Temperature Precipitation Wind Pressure Humidity
    00:00 +15°C° 0 mm 5 mps 757 mmHg 75%
    01:00 +14°C° 0 mm 5 mps 757 mmHg 74%
    02:00 +14°C° 0 mm 5 mps 757 mmHg 73%
    03:00 +14°C° 0 mm 5 mps 756 mmHg 72%
    04:00 +14°C° 0 mm 5 mps 756 mmHg 73%
    05:00 +14°C° 0 mm 5 mps 756 mmHg 74%
    06:00 +14°C° 0 mm 5 mps 756 mmHg 74%
    07:00 +14°C° 0 mm 6 mps 756 mmHg 73%
    08:00 +15°C° 0 mm 6 mps 756 mmHg 72%
    09:00 +15°C° 0 mm 6 mps 755 mmHg 71%
    10:00 +15°C° 0 mm 7 mps 755 mmHg 68%
    11:00 +16°C° 0 mm 7 mps 755 mmHg 66%
    12:00 +16°C° 0 mm 7 mps 755 mmHg 64%
    13:00 +16°C° 0 mm 7 mps 755 mmHg 66%
    14:00 +16°C° 0 mm 7 mps 755 mmHg 69%
    15:00 +16°C° 0 mm 7 mps 754 mmHg 72%
    16:00 +16°C° 0 mm 7 mps 754 mmHg 73%
    17:00 +16°C° 0 mm 7 mps 754 mmHg 75%
    18:00 +16°C° 0 mm 7 mps 754 mmHg 76%
    19:00 +16°C° 0 mm 7 mps 754 mmHg 80%
    20:00 +15°C° 0 mm 7 mps 754 mmHg 83%
    21:00 +14°C° 0 mm 7 mps 754 mmHg 87%
    22:00 +14°C° 0.1 mm 7 mps 754 mmHg 88%
    23:00 +12°C° 0.1 mm 7 mps 754 mmHg 88%

    31 May, Thursday

    Time Temperature Precipitation Wind Pressure Humidity
    00:00 +12°C° 0.1 mm 7 mps 754 mmHg 89%
    01:00 +11°C° 0.1 mm 7 mps 753 mmHg 89%
    02:00 +11°C° 0.1 mm 6 mps 753 mmHg 90%
    03:00 +11°C° 0.1 mm 6 mps 753 mmHg 91%
    04:00 +11°C° 0 mm 6 mps 753 mmHg 90%
    05:00 +13°C° 0 mm 6 mps 753 mmHg 88%
    06:00 +13°C° 0 mm 6 mps 753 mmHg 87%
    07:00 +14°C° 0 mm 6 mps 753 mmHg 85%
    08:00 +15°C° 0 mm 6 mps 753 mmHg 82%
    09:00 +16°C° 0 mm 6 mps 753 mmHg 80%
    10:00 +17°C° 0 mm 6 mps 753 mmHg 77%
    11:00 +17°C° 0 mm 5 mps 753 mmHg 75%
    12:00 +19°C° 0 mm 5 mps 752 mmHg 72%
    13:00 +20°C° 0 mm 4 mps 752 mmHg 71%
    14:00 +20°C° 0 mm 4 mps 752 mmHg 70%
    15:00 +21°C° 0 mm 3 mps 752 mmHg 68%
    16:00 +20°C° 0 mm 3 mps 752 mmHg 69%
    17:00 +20°C° 0 mm 2 mps 752 mmHg 70%
    18:00 +19°C° 0 mm 2 mps 752 mmHg 72%
    19:00 +18°C° 0 mm 2 mps 752 mmHg 76%
    20:00 +17°C° 0 mm 2 mps 752 mmHg 80%
    21:00 +16°C° 0 mm 2 mps 753 mmHg 84%
    22:00 +16°C° 0 mm 2 mps 753 mmHg 85%
    23:00 +15°C° 0 mm 1 mps 753 mmHg 86%

    1 June, Friday

    Time Temperature Precipitation Wind Pressure Humidity
    00:00 +15°C° 0 mm 1 mps 753 mmHg 88%
    01:00 +15°C° 0 mm 1 mps 753 mmHg 88%
    02:00 +14°C° 0 mm 1 mps 753 mmHg 89%
    03:00 +14°C° 0 mm 1 mps 753 mmHg 90%
    04:00 +15°C° 0 mm 1 mps 753 mmHg 88%
    05:00 +15°C° 0 mm 1 mps 753 mmHg 86%
    06:00 +15°C° 0 mm 1 mps 753 mmHg 85%
    07:00 +16°C° 0 mm 1 mps 754 mmHg 81%
    08:00 +16°C° 0 mm 0 mps 754 mmHg 78%
    09:00 +17°C° 0 mm 0 mps 754 mmHg 75%
    10:00 +20°C° 0 mm 1 mps 754 mmHg 72%
    11:00 +21°C° 0 mm 1 mps 754 mmHg 70%
    12:00 +21°C° 0 mm 2 mps 754 mmHg 67%
    13:00 +20°C° 0 mm 2 mps 754 mmHg 69%
    14:00 +20°C° 0 mm 3 mps 754 mmHg 70%
    15:00 +20°C° 0 mm 4 mps 754 mmHg 71%
    16:00 +19°C° 0 mm 4 mps 754 mmHg 73%
    17:00 +19°C° 0 mm 4 mps 755 mmHg 75%
    18:00 +18°C° 0 mm 4 mps 755 mmHg 77%
    19:00 +17°C° 0 mm 4 mps 755 mmHg 80%
    20:00 +15°C° 0 mm 4 mps 755 mmHg 83%
    21:00 +15°C° 0 mm 4 mps 755 mmHg 86%
    22:00 +14°C° 0 mm 5 mps 756 mmHg 88%
    23:00 +14°C° 0 mm 5 mps 756 mmHg 89%

    2 June, Saturday

    Time Temperature Precipitation Wind Pressure Humidity
    00:00 +13°C° 0 mm 5 mps 756 mmHg 91%
    01:00 +13°C° 0 mm 5 mps 756 mmHg 92%
    02:00 +13°C° 0 mm 5 mps 756 mmHg 94%
    03:00 +12°C° 0 mm 5 mps 756 mmHg 95%
    04:00 +13°C° 0 mm 5 mps 756 mmHg 94%
    05:00 +13°C° 0 mm 5 mps 756 mmHg 93%
    06:00 +13°C° 0 mm 5 mps 756 mmHg 92%
    07:00 +13°C° 0 mm 5 mps 757 mmHg 91%
    08:00 +14°C° 0 mm 5 mps 757 mmHg 89%
    09:00 +14°C° 0 mm 5 mps 757 mmHg 87%
    10:00 +15°C° 0 mm 5 mps 757 mmHg 83%
    11:00 +16°C° 0 mm 5 mps 757 mmHg 80%
    12:00 +17°C° 0 mm 5 mps 757 mmHg 76%
    13:00 +17°C° 0 mm 5 mps 758 mmHg 76%
    14:00 +17°C° 0 mm 5 mps 758 mmHg 76%
    15:00 +17°C° 0 mm 5 mps 758 mmHg 76%
    16:00 +16°C° 0 mm 5 mps 758 mmHg 78%
    17:00 +15°C° 0 mm 6 mps 758 mmHg 81%
    18:00 +15°C° 0 mm 6 mps 759 mmHg 83%
    19:00 +14°C° 0 mm 5 mps 759 mmHg 85%
    20:00 +13°C° 0 mm 5 mps 759 mmHg 87%
    21:00 +13°C° 0 mm 4 mps 760 mmHg 89%
    22:00 +12°C° 0 mm 4 mps 760 mmHg 90%
    23:00 +12°C° 0 mm 4 mps 760 mmHg 90%
    Show more